Location: Beadle
(51.4667°N, 109.0000°W)
Time: 05:15:09
(UTC+00:00)

Altair - Pass Details

Date: 02 June 2022
Orbit: 1501 x 1682 km, 47.2° (Epoch: 30 June)

Event Time Altitude Azimuth Distance (km) Brightness Sun altitude
Rises 19:45:21 0° 186° (S) 4,751 10.5 60.2°
Reaches altitude 10° 19:49:32 10° 170° (S) 3,804 10.2 60.0°
Maximum altitude 19:55:48 20° 129° (SE) 3,158 9.6 59.7°
Drops below altitude 10° 20:02:12 10° 88° (E) 3,902 9.6 59.3°
Sets 20:06:31 0° 73° (ENE) 4,916 9.9 59.1°
